GEFSCGP_con_cape1000_354.txt.gz
Probability
3 0 0 0 3 0 0 0 0 0 0 0 3 0 0 3 6 6 13 19 26 26 19 23 23 23 29 48 48 55 55 65 61 52 52 45 39 29 32 32 35 32 32 29
3 0 0 0 0 0 0 0 3 0 0 0 3 3 6 3 3 6 10 23 29 26 26 23 32 23 29 48 42 45 52 55 58 58 55 52 48 35 29 35 42 32 29 32
3 0 0 0 0 0 0 0 3 3 3 3 3 3 13 10 3 3 6 16 23 23 23 26 26 26 26 29 42 39 58 65 61 61 48 52 55 45 29 35 32 23 26 29
3 3 0 0 0 0 3 3 0 3 3 6 0 0 16 13 10 10 6 10 26 29 32 26 23 26 39 35 32 52 58 65 68 55 55 48 45 42 42 48 35 39 35 35
3 3 3 0 0 3 3 3 3 3 3 6 3 3 3 10 13 10 10 13 13 29 19 16 13 26 29 29 32 45 58 61 61 58 55 58 48 42 45 48 52 42 35 39
3 6 3 3 3 0 6 3 6 3 3 0 0 0 3 6 0 10 16 19 26 23 19 16 16 26 29 29 26 35 55 68 58 55 55 61 55 52 45 55 52 39 32 39
6 6 6 6 10 10 10 3 0 0 0 0 0 0 3 6 3 6 16 19 26 29 26 29 29 29 26 26 32 29 48 55 55 52 55 61 65 65 65 58 52 42 32 35
0 0 6 6 10 6 3 3 0 0 0 0 3 3 3 6 6 10 16 23 32 29 35 35 35 32 29 19 26 29 48 55 55 52 61 65 65 65 58 58 45 39 29 29
0 0 0 6 10 6 6 3 0 0 0 0 0 3 3 16 13 10 13 19 26 26 32 35 32 26 19 23 26 26 45 55 58 55 65 68 65 68 65 65 58 39 55 29
0 0 0 0 3 3 0 3 0 0 0 0 0 0 6 19 16 13 16 29 26 32 32 39 29 29 32 26 26 29 42 48 58 58 58 55 65 61 61 65 65 58 55 45
0 0 3 3 3 3 3 0 3 0 3 0 0 0 6 10 10 13 23 29 26 35 29 26 32 32 26 26 23 32 39 42 55 58 58 58 61 58 58 61 61 61 65 55
3 0 0 0 0 0 0 0 0 0 0 0 0 3 6 6 13 23 23 29 35 32 29 26 16 23 29 29 29 32 32 39 42 52 52 58 55 55 55 52 52 58 61 55
0 0 0 0 0 0 0 0 0 0 0 0 0 0 10 10 19 19 23 26 29 35 39 42 42 39 29 29 32 29 35 35 39 39 42 45 48 48 52 48 48 55 58 52
0 0 0 0 0 0 0 0 0 0 0 0 0 3 13 16 23 19 26 29 32 42 48 42 39 42 39 35 32 32 35 32 26 39 29 39 39 39 45 45 45 48 45 42
0 0 0 0 0 0 0 0 0 0 0 0 0 3 6 19 23 19 26 26 29 29 45 42 39 32 39 29 29 32 29 29 29 29 29 29 35 35 35 35 39 39 35 35
0 0 0 0 0 0 0 0 0 0 0 0 0 3 3 16 16 16 26 29 29 29 39 35 39 32 35 32 29 32 26 23 26 32 32 32 32 29 29 29 32 35 26 23
0 0 0 0 0 0 0 0 0 0 0 0 0 6 13 23 16 23 29 26 26 32 35 39 42 42 42 35 32 35 35 29 29 29 29 29 26 29 26 26 29 32 29 19
3 0 0 0 0 0 0 3 0 0 3 0 0 6 13 26 26 26 29 35 32 32 35 35 39 39 35 26 32 29 32 32 29 32 19 23 29 32 26 23 29 26 32 23
3 6 0 0 0 0 3 3 0 3 6 6 10 13 16 26 26 26 35 42 35 32 32 35 35 35 35 35 26 26 26 29 26 26 26 26 19 19 23 26 23 29 29 26
0 3 0 0 0 0 0 3 0 6 10 10 19 19 19 29 26 29 35 35 26 26 32 35 29 32 32 29 26 23 23 23 19 16 16 19 23 19 13 23 23 19 16 19
0 0 0 0 0 0 6 3 3 3 10 13 19 19 29 32 32 39 32 26 26 32 29 29 32 35 35 29 26 23 19 13 3 3 10 10 10 13 13 13 16 19 16 19
0 0 0 0 0 0 6 3 6 16 26 26 26 32 32 39 35 32 29 29 26 26 23 29 35 35 35 26 26 26 16 10 6 3 3 6 13 10 10 13 16 13 13 13
3 3 3 0 3 16 13 16 19 19 26 29 32 29 29 35 32 26 23 23 26 26 26 29 32 29 16 16 19 23 16 10 6 6 6 10 13 10 10 10 10 16 13 13
6 6 3 6 6 10 13 19 16 23 23 26 32 35 35 32 32 29 23 26 26 26 29 23 19 13 13 13 16 13 6 6 3 6 6 10 13 10 10 13 10 10 10 6
10 10 13 10 13 16 23 16 19 16 23 26 32 35 32 32 32 29 29 29 29 26 19 23 26 16 19 23 19 6 3 6 3 3 3 10 10 10 13 10 10 10 10 10
10 10 10 10 10 10 19 16 16 19 13 23 32 32 32 29 35 29 29 29 26 19 19 23 19 19 19 13 10 3 6 6 6 6 6 10 10 10 6 10 6 3 0 0

GEFSCGP_con_cape1000_360.txt.gz
Probability
0 0 0 0 0 0 0 0 0 0 0 0 0 0 3 10 10 13 16 19 19 19 16 23 23 19 32 48 68 71 74 74 71 74 68 65 61 68 71 58 48 45 45 52
0 0 0 0 0 0 0 0 0 0 3 0 0 3 10 13 10 6 13 23 26 23 32 26 29 32 39 48 68 74 74 77 77 77 81 81 68 65 68 68 55 48 52 52
0 0 0 0 0 0 0 0 0 0 0 0 6 3 6 10 10 13 13 23 23 19 29 26 32 32 35 52 55 55 71 77 74 74 74 71 74 68 65 68 71 58 58 55
0 0 0 0 0 0 0 0 0 0 0 0 0 3 16 10 10 10 10 19 19 23 23 29 32 39 32 48 58 65 71 74 77 74 74 77 74 68 68 74 74 68 65 58
0 0 0 0 0 0 0 0 0 0 0 0 0 0 10 19 10 16 10 23 23 29 26 32 35 35 35 45 58 65 71 71 74 77 81 81 81 74 68 81 74 77 68 65
0 0 0 0 0 0 0 0 0 0 0 0 0 0 3 16 26 23 19 16 29 26 26 35 42 45 29 29 45 55 68 74 74 77 77 77 81 81 81 77 77 77 71 65
0 0 0 0 0 0 0 0 0 0 3 0 0 0 6 10 13 19 16 29 23 32 32 29 39 42 39 23 48 61 65 71 74 74 74 77 77 77 74 74 74 74 71 68
0 0 0 0 0 0 0 0 0 0 0 0 0 0 10 10 6 13 13 32 29 23 26 29 29 35 32 29 52 61 65 68 71 68 74 74 74 71 71 71 68 65 65 68
0 3 0 0 0 0 0 0 0 0 0 0 0 3 16 16 13 10 10 23 29 29 26 32 35 32 26 29 35 52 61 65 68 68 68 65 65 68 71 68 71 65 71 68
0 0 0 0 0 0 0 0 0 3 3 0 0 0 13 23 16 13 13 23 32 32 35 29 19 32 23 23 39 45 48 58 61 61 58 52 65 61 65 61 65 65 65 58
0 0 3 0 0 0 0 0 0 3 0 0 0 3 13 19 16 16 26 26 35 29 32 32 26 32 35 26 29 42 45 55 61 58 61 65 58 58 58 58 61 61 61 58
0 0 3 0 0 0 0 0 0 3 3 3 0 0 0 6 13 23 32 29 29 32 45 35 29 32 35 39 39 35 45 42 55 58 58 55 58 58 58 55 58 58 58 58
0 0 0 0 0 0 0 0 0 0 0 0 0 0 3 10 19 19 32 42 35 45 42 32 35 42 45 42 52 45 48 39 42 42 42 48 52 58 58 55 55 55 55 55
0 0 0 0 0 0 0 0 0 0 0 0 3 3 13 16 26 23 42 42 35 42 45 39 42 52 52 55 52 52 48 35 39 48 42 45 48 52 52 48 48 48 48 48
0 0 0 0 0 0 0 0 0 0 0 3 6 10 19 16 13 16 32 26 29 45 45 48 52 52 55 55 52 42 35 39 45 45 42 52 52 48 52 48 52 42 42 32
0 0 0 0 0 0 0 0 3 3 3 3 6 10 13 16 16 29 32 32 45 48 55 52 52 55 55 48 42 35 35 39 39 39 42 45 45 42 42 42 42 35 35 35
0 0 0 0 0 0 0 0 3 3 3 3 6 13 13 10 23 32 32 32 42 52 55 52 48 45 42 48 39 35 35 35 35 35 39 42 35 39 39 32 29 35 35 39
0 19 3 3 0 0 0 0 0 0 0 3 3 10 16 13 26 26 26 39 45 52 52 52 48 48 42 39 35 39 35 32 32 32 26 26 32 29 29 23 32 35 35 39
0 13 0 0 0 0 0 0 0 0 0 10 6 6 6 10 19 32 32 45 42 48 42 45 48 45 45 32 35 39 39 35 29 26 29 26 23 29 23 26 26 35 35 39
0 3 0 0 0 0 0 0 0 0 3 6 10 10 6 13 13 35 42 39 35 29 39 39 45 42 45 42 39 32 29 29 26 26 23 29 19 19 26 23 23 23 35 26
0 0 0 3 0 3 0 3 0 0 13 10 13 13 32 32 42 45 39 32 32 35 35 35 32 39 42 32 32 32 32 29 26 19 19 19 23 23 29 26 23 26 23 26
0 0 0 3 0 0 0 3 16 32 39 13 16 19 35 45 45 39 45 39 39 29 29 29 35 39 32 29 32 35 35 29 16 16 16 19 26 19 19 23 29 26 23 23
3 3 6 16 6 16 6 16 26 23 26 23 26 29 35 39 42 39 45 42 42 35 32 32 35 39 35 35 35 29 32 26 19 13 19 19 23 23 23 26 19 26 23 16
6 10 3 16 10 10 6 6 13 13 16 19 26 26 26 39 45 45 48 45 45 39 32 35 35 32 29 29 29 32 32 23 19 23 26 23 23 19 23 29 13 16 16 10
3 6 10 19 13 6 13 13 10 6 13 16 19 19 23 42 45 42 45 45 42 42 35 35 35 35 32 32 32 29 26 19 23 23 16 16 19 16 29 16 19 13 16 10
6 6 13 13 19 10 10 6 6 13 13 10 13 26 35 35 42 42 45 45 42 42 35 32 29 32 32 29 29 26 23 19 23 23 19 16 16 19 13 13 6 0 0 0

GEFSCGP_con_cape1000_366.txt.gz
Probability
0 0 0 0 0 0 0 0 0 0 0 0 0 0 3 3 0 0 0 0 0 3 0 6 6 6 6 10 13 13 13 10 13 13 10 10 6 10 13 13 10 13 13 19
0 0 0 0 0 0 0 0 0 0 0 0 0 0 0 0 3 0 0 0 0 0 0 3 3 6 10 16 13 16 19 13 19 16 10 10 16 13 16 13 13 13 16 13
0 0 0 0 0 0 0 0 0 0 0 0 0 0 0 3 3 10 6 0 0 0 3 3 6 10 26 16 19 26 23 23 29 23 19 23 13 16 13 16 10 10 13 13
0 0 0 0 0 0 0 0 0 0 0 0 0 0 0 0 0 6 0 0 0 0 3 6 10 23 32 29 26 26 26 29 29 26 23 19 16 16 16 16 16 13 13 13
0 0 0 0 0 0 0 0 0 0 0 0 0 0 0 0 3 3 3 0 0 0 0 3 13 16 23 32 26 29 19 19 19 19 23 23 19 16 13 13 16 16 16 16
0 0 0 0 0 0 0 0 0 0 0 0 0 0 0 0 3 10 6 6 6 10 3 6 10 10 23 23 29 35 23 16 10 16 16 16 16 16 19 19 19 13 13 13
0 0 0 0 0 0 0 0 0 0 0 0 0 0 0 0 3 10 10 3 10 10 6 10 6 16 23 23 23 26 23 19 16 19 19 23 19 13 23 19 16 19 19 16
0 0 0 0 0 0 0 0 0 0 0 0 0 0 0 3 3 10 10 16 13 6 6 6 3 10 13 23 26 19 23 19 19 26 23 26 26 26 16 16 16 16 23 19
0 0 0 0 0 0 0 0 0 0 0 0 0 0 0 10 6 10 10 13 3 6 10 3 3 3 10 16 26 23 23 26 19 19 23 32 26 26 26 19 13 16 16 16
0 0 0 0 0 0 0 0 0 0 0 0 0 0 0 3 6 10 10 13 13 10 10 13 10 10 13 10 19 29 29 29 29 32 32 32 29 29 26 26 19 19 19 19
0 0 0 0 0 0 0 0 0 0 0 0 0 0 0 0 3 3 6 10 16 13 10 13 13 10 10 16 16 29 32 32 29 29 29 32 29 32 35 32 26 19 19 16
0 0 0 0 0 0 0 0 0 0 0 0 0 0 0 3 3 3 10 10 13 13 10 13 13 13 13 19 19 32 39 26 29 32 35 35 35 32 32 32 29 29 23 16
0 0 0 0 0 0 0 0 0 0 0 0 0 0 3 3 6 6 6 10 19 16 13 10 10 16 16 19 23 23 29 35 35 29 39 32 32 23 23 29 19 23 19 16
0 0 0 0 0 0 0 0 0 0 0 0 0 0 3 6 3 3 3 19 23 19 19 16 13 10 13 16 16 16 23 29 29 29 35 29 29 16 13 19 19 19 19 19
0 0 0 0 0 0 0 0 0 0 0 0 0 0 10 10 3 3 10 19 19 23 19 16 10 6 10 10 6 10 13 19 16 23 29 26 13 13 13 13 10 10 13 13
0 0 0 0 0 0 0 0 0 0 0 0 0 0 0 6 3 16 13 26 29 23 16 13 10 13 13 13 13 13 19 19 19 19 19 16 10 10 10 6 10 13 13 16
0 0 0 0 0 0 0 0 0 0 0 0 0 0 0 13 16 16 19 19 23 23 13 13 13 16 10 13 13 13 19 23 23 16 16 13 16 13 13 13 13 13 13 13
0 0 0 0 0 0 0 0 0 0 0 0 0 3 16 16 19 19 13 19 23 23 13 16 16 19 13 13 13 16 23 16 13 13 13 10 13 13 13 13 13 10 6 6
0 0 0 0 0 0 0 0 0 0 0 0 6 13 16 19 23 23 16 19 29 16 16 13 16 23 23 19 19 19 16 16 13 13 10 10 13 10 6 6 6 3 6 6
0 0 0 0 0 0 0 0 0 0 3 6 6 10 13 16 23 29 19 16 16 13 13 13 13 13 16 10 16 10 13 13 13 13 10 10 6 6 6 3 3 3 3 3
0 0 0 0 0 0 0 0 0 0 0 0 6 10 10 16 19 19 19 16 16 13 19 13 10 13 6 10 6 6 6 6 6 10 10 10 0 0 3 3 3 0 0 0
0 0 0 0 0 0 0 0 3 6 6 3 6 6 6 6 10 13 16 19 16 16 16 10 13 10 10 3 3 6 6 10 3 6 3 0 0 0 0 0 0 0 0 0
0 0 0 0 0 0 0 3 3 6 6 3 6 6 6 3 10 13 16 19 16 13 10 13 13 10 6 6 6 10 3 3 3 0 0 0 0 0 0 0 0 0 0 0
0 0 0 0 0 0 0 3 10 3 3 6 10 6 10 10 10 19 23 19 10 13 13 13 13 10 13 10 6 3 0 0 0 0 0 0 3 3 0 0 0 0 0 0
0 0 0 0 0 0 0 3 3 6 10 6 13 16 16 16 16 23 16 13 13 16 16 16 13 13 13 6 6 3 0 0 0 0 0 3 0 0 0 0 0 0 0 0
0 0 0 0 0 6 3 3 3 3 6 6 16 19 16 16 19 16 13 13 13 16 16 13 10 10 10 6 3 3 0 0 0 0 0 0 0 0 0 0 0 0 0 0

GEFSCGP_con_cape1000_372.txt.gz
Probability
0 0 0 0 0 0 0 0 0 0 0 0 0 0 0 0 0 0 0 0 0 0 0 3 6 0 3 3 3 3 3 3 3 3 6 6 3 3 3 3 10 6 6 10
0 0 0 0 0 0 0 0 0 0 0 0 0 0 0 0 0 0 0 0 0 0 3 3 0 3 3 3 3 3 3 3 3 6 6 6 3 3 3 3 3 10 13 13
0 0 0 0 0 0 0 0 0 0 0 0 0 0 0 0 0 0 0 0 0 0 3 3 6 6 13 13 3 3 3 3 6 3 3 6 3 3 3 3 0 6 10 10
0 0 0 0 0 0 0 0 0 0 0 0 0 0 0 0 0 3 0 0 0 6 10 3 13 10 6 6 3 0 0 0 3 3 6 3 3 3 3 3 3 6 6 6
0 0 0 0 0 0 0 0 0 0 0 0 0 0 0 0 0 0 0 3 3 3 3 6 10 10 3 3 0 0 0 3 3 3 3 3 3 3 3 3 6 10 3 3
0 0 0 0 0 0 0 0 0 0 0 0 0 0 0 0 0 0 3 3 3 6 6 6 3 3 3 3 0 0 3 3 3 3 3 3 0 3 3 10 6 6 6 6
0 0 0 0 0 0 0 0 0 0 0 0 0 0 0 0 0 0 3 6 6 6 6 3 3 3 6 6 3 6 3 3 3 3 3 0 0 3 10 10 6 6 6 6
0 0 0 0 0 0 0 0 0 0 0 0 0 0 0 0 3 3 10 13 3 3 3 3 3 3 6 6 6 3 3 3 6 6 6 6 6 0 3 6 6 6 6 6
0 0 0 0 0 0 0 0 0 0 0 0 0 0 0 3 10 10 10 6 6 3 3 3 3 3 3 6 6 3 3 0 6 6 6 3 0 0 6 6 6 6 6 6
0 0 0 0 0 0 0 0 0 0 0 0 0 0 0 0 3 10 6 6 6 6 6 3 3 3 3 3 0 6 3 6 6 3 3 13 3 10 10 0 6 6 13 13
0 0 0 0 0 0 0 0 0 0 0 0 0 0 0 0 3 6 6 3 3 6 6 6 6 6 6 3 3 6 6 6 6 3 3 13 13 13 10 13 10 10 13 6
0 0 0 0 0 0 0 0 0 0 0 0 0 0 0 0 3 3 3 3 3 6 6 6 3 3 3 3 6 10 6 6 6 6 13 13 13 10 13 10 10 10 6 3
0 0 0 0 0 0 0 0 0 0 0 0 0 0 0 0 3 3 3 3 3 10 10 3 3 3 3 3 3 3 6 13 13 16 16 16 16 13 10 10 6 6 6 3
0 0 0 0 0 0 0 0 0 0 0 0 0 0 0 3 6 6 3 3 10 10 3 3 3 3 3 3 3 3 3 16 13 23 23 16 16 13 10 10 10 10 10 13
0 0 0 0 0 0 0 0 0 0 0 0 0 0 0 0 6 6 3 3 10 10 3 6 3 3 3 3 3 3 3 10 16 13 13 10 6 6 6 6 10 6 10 10
0 0 0 0 0 0 0 0 0 0 0 0 0 0 0 0 6 10 6 10 6 6 3 6 6 10 10 6 3 6 6 6 10 6 6 6 6 6 6 6 6 6 6 6
0 0 0 0 0 0 0 0 0 0 0 0 0 0 3 6 6 10 10 10 13 10 10 6 6 6 6 3 3 10 13 13 6 6 6 6 3 3 3 3 3 3 3 10
0 0 0 0 0 0 0 0 0 0 0 0 0 3 3 10 6 10 10 10 13 10 6 10 3 3 3 6 3 6 3 10 6 6 6 6 6 3 6 6 6 6 6 6
0 0 0 0 0 0 0 0 0 0 0 3 3 3 10 10 10 10 10 10 10 3 0 0 0 0 0 3 6 6 6 3 0 6 6 6 10 6 6 10 10 3 3 3
0 0 0 0 0 0 0 0 0 0 0 0 3 10 10 6 6 6 10 6 6 3 0 0 3 3 3 6 3 3 0 0 0 3 3 3 3 3 3 3 3 3 0 0
0 0 0 0 0 0 0 0 0 0 0 0 3 10 10 6 3 3 6 10 3 0 3 3 3 3 3 6 6 6 0 3 3 3 3 6 3 3 3 3 0 0 0 0
0 0 0 0 0 0 0 0 0 0 0 0 3 10 6 6 10 6 6 6 0 0 0 0 0 0 3 3 0 3 3 3 3 3 3 3 3 3 0 0 0 0 0 0
0 0 0 0 0 0 3 3 0 0 0 0 3 3 6 6 6 6 6 6 0 0 3 3 3 6 3 0 3 3 3 3 0 0 3 3 3 0 0 0 0 0 0 0
0 0 0 0 3 3 3 3 3 3 3 3 3 3 6 6 3 3 3 3 0 3 6 6 6 6 0 0 0 3 0 0 0 0 3 3 3 0 0 0 0 0 0 0
0 0 0 0 0 3 3 3 3 3 6 10 13 6 6 3 3 3 3 3 6 6 6 6 6 3 0 0 0 0 0 0 0 0 0 0 0 0 0 0 0 0 0 0
0 0 0 0 0 3 3 3 3 3 6 6 10 6 3 10 3 6 0 3 3 3 6 6 3 3 0 0 0 0 0 0 0 0 0 0 0 0 0 0 0 0 0 0